Location: Hradec Kralove
(50.2170°N, 15.8330°E)
Time: 09:49:52
(UTC+01:00)

BlueWalker 3 - Pass Details

Date: 07 December 2022
Orbit: 499 x 517 km, 53.2° (Epoch: 29 January)

Event Time Altitude Azimuth Distance (km) Brightness Sun altitude
Rises 18:41:53 0° 292° (WNW) 2,629 6.6 -25.7°
Reaches altitude 10° 18:44:09 10° 286° (WNW) 1,736 5.5 -26.0°
Enters shadow 18:47:16 40° 242° (WSW) 762 3.2 -26.5°
